IRIDIUM 33 DEB, 33773

Orbit data source: Space-Track

IRIDIUM 33 DEB, 33773 is space debris in LEO originally from a launch on Sun, 14 Sep 1997 UTC launched from the Tyuratam Missile And Space Complex (TTMTR). The debris from Iridium 33, an American commercial communications satellite, has been tracked extensively since its accidental collision with the defunct Russian satellite Cosmos 2251 in 2009. This event, occurring at high speed in low Earth orbit (LEO), generated thousands of pieces of space debris, significantly increasing the risk of further collisions. The Iridium 33 debris cloud has impacted space traffic management and orbital debris mitigation strategies, making it a subject of ongoing study in space situational awareness.

Loading next visibility...
Identifier
33773, 1997-051L
Orbit
LEO
Country
Flag of USUS
Related business
Manufacturer
Unknown
Mission
Spacecraft
Bus & Motor
Unknown
Mass
Unknown
Launch date (UTC)
1997-09-14 (28 years ago)
Launch vehicle
Unknown
Launch site
Tyuratam Missile And Space Complex (TTMTR)
Object type
Payload
Rocket body
Debris
Shape & HBR
Unknown shape, 0.8 m
Radar Cross Section
Medium (>0.1 m² and <1 m²)

Expand to show TLE details & history
Last TLE update: 14 hours ago

TLE from 14 hours ago
0 IRIDIUM 33 DEB
1 33773U 97051L   25351.70687539  .00000841  00000-0  24372-3 0  9990
2 33773  86.4007  58.4847 0012911 131.8880 228.3425 14.43267660884194
Epoch: 2025-12-17T16:57Z
TLE epoch observation values (Epoch: 2025-12-17T16:57:54.033Z)
Latitude
0.00001°
Longitude
77.43669°
Altitude
756.909 km
Speed
7.473 km/s
True Right ascension
03h 53m 56s
True Declination
0° 00' 00"
Sunlit
Object was in full shadow at epoch
Visualization orbit readout
Latitude
Unknown
Longitude
Unknown
Altitude
Unknown
Speed
Unknown
Apparent Right ascension
Unknown
Apparent Declination
Unknown
Sunlit
N/A
Visualization observer readout
Local Sidereal Time
05:19:12
Azimuth
Unknown
Elevation
Unknown
Doppler factor
Unknown
Orbital elements
Apogee altitude
753.87 km
Perigee altitude
735.478 km
Semi-major axis
7,122.811 km
Eccentricity
0.00129
Inclination
86.4007°
RAAN
58.4847°
Arg. of periapsis
131.888°
True anomaly
228.23208°
Mean anomaly
228.3425°
Eccentric anomaly
228.28728°
Mean motion
3.61049 °/min
Orbital period
99.71 mins
BSTAR
0.00024372
Loading maneuver chart data...
Computing Atmospheric mass density...

Documentation

Showing up to 5 results
|